"Pseudo-MPEC" for C3HF0V1

Created 2023 Jan 27 11:22:10 UT using Find_Orb

Click here for an explanation of pseudo-MPECs

 
 Astrometry: 
     C3HF0V1*1C2023 01 25.38125812 19 21.295+30 30 04.93   ~1P9q 20.00GVNEOCP703
     C3HF0V1 1C2023 01 25.39177712 19 34.352+30 34 26.22   ~1P9q 18.60GVNEOCP703
     C3HF0V1 1C2023 01 25.39704012 19 40.984+30 36 39.71   ~1P9qx19.79GVNEOCP703
     C3HF0V1 1C2023 01 25.48423212 21 27.922+31 12 23.87   ~1PC7 19.33GVNEOCP703
     C3HF0V1 1C2023 01 25.48464312 21 28.444+31 12 35.10   ~1PC7 19.51GVNEOCP703
     C3HF0V1 1C2023 01 25.48505412 21 28.933+31 12 43.99   ~1PC7 19.48GVNEOCP703
     C3HF0V1 1C2023 01 25.48546512 21 29.470+31 12 54.65   ~1PC7 19.36GVNEOCP703
     C3HF0V1 KC2023 01 25xat8VaMB$h`fZV5P9,V8NiYC'$q6N'4i!LFcyBAstrometrygA(`L01
     C3HF0V1 KC2023 01 25-=CG/)XXG[!O`sehTredacted;SWV%WsYS`6F.-=+T4f(l4dHc$uL01
     C3HF0V1 KC2023 01 25(lO[#_:[Xshst$s\16g@qU,y@=J]Ay?g(TkhoFhnssmR*]?JTu1TL01
     C3HF0V1 KC2023 01 25w+q!imTbZ\=K$2QKTFxKsk#WOw(]Lm7#xcXAV2*6nGs3GxAmvF@BL01
     C3HF0V1 KC2023 01 25$xK!Z.'M*KcbmstQ/Bxclick%oeMm`tDa;here@emk@My!y+for%L01
     C3HF0V1 KC2023 01 27.03098512 55 00.946+40 28 28.60   ~1R1M 19.8 GVNEOCPJ95
     C3HF0V1 KC2023 01 27.03421612 55 05.110+40 29 29.94   ~1R1M 19.6 GVNEOCPJ95
     C3HF0V1 KC2023 01 27.03742012 55 09.245+40 30 30.38   ~1R1M 19.6 GVNEOCPJ95
     C3HF0V1 KC2023 01 27.04050212 55 13.205+40 31 29.21   ~1R1M 19.6 GVNEOCPJ95
     C3HF0V1 KC2023 01 27Gr5uIyq!$g@Q4[XBuxahC[;C\ovAt9hGN=JM4R!]6[=HW8!rDSugH21
     C3HF0V1 KC2023 01 275jdV?Wxf+;jYPpeQKA,@j2k6miDhexplanationWYYujRRhr7^bpH21
     C3HF0V1 KC2023 01 27435?^laDf+bxPSk?wZP0mKyWCqI'Ysol/4*UOOAZks0De*uyZ`F,H21
     C3HF0V1 KC2023 01 27:E=]fO:gBIV$+Uy@!r*E74u6o[6Uu[L3Qm+'-s#0O)h49g.:_m9wH21
     C3HF0V1 KC2023 01 27[hgPI$_E9f2E3=@6)*?frTY9MR/g)kUquYO5XB!jgh-mbxPl=qKPH21
     C3HF0V1 KC2023 01 27Wh$/QE9BdrYm-k5b[WPi$8A/^^0VYR4B)Y[4yxGl+9\Gtmw=qi^MH21

Station data:
(703) Catalina Sky Survey  (N32.417003 W110.732640)  US/Arizona.  Observers
   T. A. Pruyne, B. M. Africano, E. J. Christensen, G. A. Farneth, D. C.
   Fuls, A. R. Gibbs, A. D. Grauer, H. Gröller, J. A. Johnson, R. A.
   Kowalski, S. M. Larson, G. J. Leonard, D. Rankin, R. L. Seaman, F. C.
   Shelly, K. W. Wierzchoś. 0.68 m Schmidt + 10K CCD.
(H21) Astronomical Research Observatory, Westfield  (N39.483054 W87.968270)
   US/Illinois.  Observer R. Holmes. Measurers S. Foglia, L. Buzzi, T.
   Linder, R. Holmes. 0.76-m f/3.0 astrograph + CCD0.81-m f/4.0 astrograph +
   CCD0.61-m f/4.5 astrograph + CCD0.40-m f/5.32 astrograph + CCD.
(J95) Great Shefford  (N51.474969 W1.447003)  UK/England.  Observer P.
   Birtwhistle. 0.41-m f/6.3 Schmidt-Cassegrain + CCD.
(L01) Višnjan Observatory, Tičan  (N45.290897 E13.749300)  Croatia.
   Observers K. Korlević, D. Pujagic, V. Dobos. Measurers D. Pujagic, K.
   Korlević. 1.0-m f/2.9 reflector + CCD.

Orbital elements:  C3HF0V1
   Perihelion 2023 Feb 1.69895 +/- 0.0253 TT = 16:46:29 (JD 2459977.19895)
Epoch 2023 Jan 27.0 TT = JDT 2459971.5   Earth MOID: 0.0495      AutoNEOCP
M 357.78441599 +/- 0.026            (J2000 ecliptic)
n   0.38877076 +/- 0.0029           Peri.   12.02085 +/- 0.020
a   1.85926080 +/- 0.00922          Node   124.28827 +/- 0.008
e   0.4474531 +/- 0.00267           Incl.   33.28645 +/- 0.08
P   2.54/925.98d           H 23.31  G  0.15   U  8.8
q 1.02732877 +/- 0.000147    Q 2.69119283 +/- 0.0183
21 of 22 observations 2023 Jan. 25-27 (47.9 hr); mean residual 0".28
Residuals in arcseconds: 
230125 703  .70-  .44+    230125 L01  .08+  .28+    230127 H21  .00   .03+    
230125 703  .50+  .26-    230125 L01  .17+  .19-    230127 H21  .02+  .16+    
230125 703( 2.4+  2.4+)   230125 L01  .29+  .41+    230127 H21  .07-  .14+    
230125 703  .16-  .69-    230125 L01  .35-  .12+    230127 H21  .02-  .26+    
230125 703  .06+  .51+    230127 J95  .08+  .07-    230127 H21  .13+  .17+    
230125 703  .15-  .62-    230127 J95  .01+  .01-    230127 H21  .12+  .31+    
230125 703  .26+  .02+    230127 J95  .03+  .28-    
230125 L01  .12+  .42+    230127 J95  .14-  .19+    

Ephemerides (geocentric):
Date (UTC) HH   RA             Dec           delta  r     elong  mag " sig PA
---- --------  ------------   ------------  ------ ------ -----  --- --------
2023 01 27 11  13 04 15.829   +42 37 02.21  .08496 1.0290 119.4 20.1 .203 112
2023 01 27 12  13 05 10.381   +42 48 55.10  .08523 1.0290 119.2 20.1 .205 111
2023 01 27 13  13 06 04.920   +43 00 41.84  .08550 1.0290 119.1 20.1 .208 110
2023 01 27 14  13 06 59.443   +43 12 22.43  .08578 1.0290 118.9 20.1 .210 109
2023 01 27 15  13 07 53.950   +43 23 56.92  .08605 1.0289 118.8 20.2 .213 107
2023 01 27 16  13 08 48.438   +43 35 25.32  .08633 1.0289 118.7 20.2 .216 106
2023 01 27 17  13 09 42.906   +43 46 47.67  .08661 1.0289 118.5 20.2 .220 105
2023 01 27 18  13 10 37.353   +43 58 03.98  .08689 1.0289 118.4 20.2 .223 104
2023 01 27 19  13 11 31.775   +44 09 14.30  .08717 1.0288 118.2 20.2 .227 103
2023 01 27 20  13 12 26.173   +44 20 18.65  .08746 1.0288 118.1 20.2 .230 102
2023 01 27 21  13 13 20.544   +44 31 17.06  .08775 1.0288 117.9 20.2 .234 100
2023 01 27 22  13 14 14.886   +44 42 09.57  .08803 1.0288 117.8 20.2 .238  99
2023 01 27 23  13 15 09.197   +44 52 56.19  .08832 1.0287 117.7 20.2 .242  98
2023 01 28 00  13 16 03.477   +45 03 36.97  .08861 1.0287 117.5 20.3 .247  97
2023 01 28 01  13 16 57.723   +45 14 11.93  .08891 1.0287 117.4 20.3 .251  96
2023 01 28 02  13 17 51.934   +45 24 41.11  .08920 1.0287 117.2 20.3 .256  95
2023 01 28 03  13 18 46.108   +45 35 04.54  .08950 1.0286 117.1 20.3 .260  94
2023 01 28 04  13 19 40.244   +45 45 22.26  .08979 1.0286 117.0 20.3 .265  93
2023 01 28 05  13 20 34.339   +45 55 34.29  .09009 1.0286 116.8 20.3 .270  92
2023 01 28 06  13 21 28.392   +46 05 40.68  .09039 1.0286 116.7 20.3 .275  91
2023 01 28 07  13 22 22.402   +46 15 41.45  .09069 1.0285 116.6 20.3 .281  90
2023 01 28 08  13 23 16.366   +46 25 36.65  .09100 1.0285 116.4 20.3 .286  90
2023 01 28 09  13 24 10.284   +46 35 26.30  .09130 1.0285 116.3 20.3 .291  89
2023 01 28 10  13 25 04.153   +46 45 10.44  .09161 1.0285 116.2 20.4 .297  88
2023 01 28 11  13 25 57.973   +46 54 49.11  .09191 1.0285 116.0 20.4 .303  87
2023 01 28 12  13 26 51.741   +47 04 22.34  .09222 1.0284 115.9 20.4 .309  86
2023 01 28 13  13 27 45.456   +47 13 50.17  .09253 1.0284 115.8 20.4 .315  86
2023 01 28 14  13 28 39.116   +47 23 12.64  .09284 1.0284 115.6 20.4 .321  85
2023 01 28 15  13 29 32.720   +47 32 29.78  .09315 1.0284 115.5 20.4 .327  84
2023 01 28 16  13 30 26.266   +47 41 41.62  .09347 1.0283 115.4 20.4 .333  84
2023 01 28 17  13 31 19.753   +47 50 48.22  .09378 1.0283 115.2 20.4 .339  83
2023 01 28 18  13 32 13.178   +47 59 49.59  .09410 1.0283 115.1 20.4 .346  83
2023 01 28 19  13 33 06.542   +48 08 45.79  .09442 1.0283 115.0 20.5 .352  82
2023 01 28 20  13 33 59.842   +48 17 36.84  .09473 1.0283 114.9 20.5 .359  81
2023 01 28 21  13 34 53.076   +48 26 22.79  .09505 1.0282 114.7 20.5 .365  81
2023 01 28 22  13 35 46.244   +48 35 03.67  .09538 1.0282 114.6 20.5 .372  80
2023 01 28 23  13 36 39.343   +48 43 39.52  .09570 1.0282 114.5 20.5 .379  80
2023 01 29 00  13 37 32.372   +48 52 10.37  .09602 1.0282 114.3 20.5 .385  79
2023 01 29 01  13 38 25.330   +49 00 36.28  .09635 1.0282 114.2 20.5 .392  79
2023 01 29 02  13 39 18.216   +49 08 57.26  .09667 1.0281 114.1 20.5 .399  79
2023 01 29 03  13 40 11.027   +49 17 13.37  .09700 1.0281 114.0 20.5 .406  78
2023 01 29 04  13 41 03.763   +49 25 24.63  .09733 1.0281 113.9 20.5 .413  78
2023 01 29 05  13 41 56.422   +49 33 31.09  .09766 1.0281 113.7 20.6 .420  77
2023 01 29 06  13 42 49.003   +49 41 32.79  .09799 1.0281 113.6 20.6 .427  77
2023 01 29 07  13 43 41.504   +49 49 29.75  .09832 1.0281 113.5 20.6 .434  77
2023 01 29 08  13 44 33.923   +49 57 22.03  .09865 1.0280 113.4 20.6 .441  76
2023 01 29 09  13 45 26.261   +50 05 09.65  .09898 1.0280 113.3 20.6 .449  76
2023 01 29 10  13 46 18.515   +50 12 52.67  .09932 1.0280 113.1 20.6 .456  76